Regional Weather Roundup
Issued by NWS

Home | Current Version | Previous Version | Text Only | Print | Product List | Glossary Off
Versions: 1 2 3 4 5 6 7 8 9 10 11 12 13 14 15 16 17 18 19 20 21 22 23 24 25 26 27 28 29 30 31 32 33 34 35 36 37 38 39 40 41 42 43 44 45 46 47 48 49 50

000
ASUS43 KIND 011509
RWRIN

WEATHER ROUNDUP FOR INDIANA
NATIONAL WEATHER SERVICE INDIANAPOLIS IN
1100 AM EDT WED JUL 01 2015

NOTE: "FAIR" INDICATES FEW OR NO CLOUDS BELOW 12,000 FEET WITH NO
SIGNIFICANT WEATHER AND/OR OBSTRUCTIONS TO VISIBILITY.

* - STATION DOES NOT REPORT WEATHER SUCH AS PRECIPITATION OR FOG.

+ - STATION NOT QUALITY CONTROLLED BY THE NATIONAL WEATHER SERVICE.
    USE DATA WITH CAUTION...ESPECIALLY DEWPOINT AND RELATIVE
    HUMIDITY OBSERVATIONS.

INZ001>003-010>013-019-020-011600-
NORTHWEST INDIANA

CITY           SKY/WX    TMP DP  RH WIND       PRES   REMARKS
GARY /AIRPORT/ PTSUNNY   63  54  72 NE8       29.98R
KNOX *+        CLOUDY    63  55  77 N3        29.96R
LA PORTE +     PTSUNNY   65  56  74 N7        29.97R
MICHIGAN CITY+ CLOUDY    61  55  82 N7        29.98R
MONTICELLO +   SUNNY     65  60  83 N6        29.94F
RENSSELAER +   SUNNY     64  61  88 N7        29.96S
VALPARAISO     CLOUDY    64  54  69 N6        29.98R

$$

LMZ046-743>745-011600-
SOUTHERN LAKE MICHIGAN

STATION/POSITION TIME  TEMP    WIND        PRES    WAVE
                       AIR SEA DIR/SP/G            HT
                 (UTC) (F)     (DEG/KT/KT) (MB)    (FT)
BURNS HARBOR     1500   58      10/  6/  8 1015.9S
MICHIGAN CITY    1500   59     330/  7/  9   N/A
5NW MICH CITY    1500   58 65  360/  6/ 10   N/A     3

$$

INZ004-005-014>016-021>024-011600-
NORTH CENTRAL INDIANA

CITY           SKY/WX    TMP DP  RH WIND       PRES   REMARKS
ELKHART        PTSUNNY   63  54  72 NW7       29.96R
GOSHEN         SUNNY     65  55  70 NW8       29.95R
LOGANSPORT +   MOSUNNY   64  54  68 N3        29.96S
ROCHESTER +    PTSUNNY   68  59  73 N6        29.96S
SOUTH BEND     MOSUNNY   65  54  67 NW10      29.96R
WARSAW +         N/A     64  55  72 NW6       29.95R

$$

INZ006>009-017-018-025>027-011600-
NORTHEAST INDIANA

CITY           SKY/WX    TMP DP  RH WIND       PRES   REMARKS
ANGOLA *+      MOSUNNY   64  55  72 NW5       29.93S
AUBURN +       MOSUNNY   64  55  72 NW8       29.95S
FORT WAYNE     PTSUNNY   67  57  70 NW9       29.95R
HUNTINGTON +   PTSUNNY   66  58  75 W3        29.95S

$$

INZ028-029-035-036-043>045-051>053-011600-
WEST CENTRAL INDIANA

CITY           SKY/WX    TMP DP  RH WIND       PRES   REMARKS
CRAWFORDSVL +  MOSUNNY   66  57  72 NE3       29.95R
GREENCASTLE +  PTSUNNY   70  55  60 E6        29.95S
LAFAYETTE      SUNNY     67  59  75 E5        29.94S
TERRE HAUTE    PTSUNNY   71  66  84 E6        29.93S

$$

INZ030>032-037>040-046>048-054>057-064-065-011600-
CENTRAL INDIANA

CITY           SKY/WX    TMP DP  RH WIND       PRES   REMARKS
ANDERSON       SUNNY     68  54  60 CALM      29.96F
CP ATTERBURY + CLOUDY    70  63  78 CALM      29.95R
FRANKFORT +    SUNNY     69  61  77 N5        29.96S
GREENWOOD *+   PTSUNNY   70  57  64 CALM      29.96R
INDIANAPOLIS   PTSUNNY   72  58  61 VRB3      29.93R
-EAGLE CREEK   MOSUNNY   71  59  65 CALM      29.94R
KOKOMO *+      SUNNY     70  59  68 N6        29.94F
MARION +       MOSUNNY   66  57  71 N6        29.96S
MT COMFORT *+  SUNNY     70  55  60 NE5       29.94S
SHELBYVILLE    MOSUNNY   72  61  68 CALM      29.95R
ZIONSVILLE +   SUNNY     69  57  66 E3        29.95S

$$

INZ033-034-041-042-049-050-058-059-011600-
EAST CENTRAL INDIANA

CITY           SKY/WX    TMP DP  RH WIND       PRES   REMARKS
MUNCIE         SUNNY     70  59  68 VRB3      29.95F

$$

INZ060-061-067>069-081>083-085>088-011600-
SOUTHWEST INDIANA

CITY           SKY/WX    TMP DP  RH WIND       PRES   REMARKS
EVANSVILLE     CLOUDY    75  70  84 SW6       29.95R HAZE
HUNTINGBURG *+ PTSUNNY   73  68  83 CALM      29.95R
WASHINGTON +     N/A     73  67  80 SE3       29.94R

$$

INZ062-063-066-070>080-084-089>092-011600-
SOUTH CENTRAL AND SOUTHEAST INDIANA

CITY           SKY/WX    TMP DP  RH WIND       PRES   REMARKS
BLOOMINGTON    MOSUNNY   71  63  75 SE6       29.94S
MADISON *+     PTSUNNY   72  64  78 CALM      29.98R
NORTH VERNON + PTSUNNY   70  70 100 CALM      29.96S
SEYMOUR +      PTSUNNY   72  68  88 CALM      29.95R

$$



USA.gov is the U.S. government's official web portal to all federal, state and local government web resources and services.